Location: R�o Medio
(42.4667°N, 3.0167°W)
Time: 07:20:55
(UTC+00:00)

COSMO-SKYMED 1 - Pass Details

Date: 27 February 2020
Orbit: 621 x 623 km, 97.9° (Epoch: 30 March)

Event Time Altitude Azimuth Distance (km) Brightness Sun altitude
Rises 18:45:13 0° 7° (N) 2,913 5.9 -9.4°
Reaches altitude 10° 18:47:28 10° 1° (N) 2,002 5.1 -9.8°
Maximum altitude 18:51:40 48° 288° (WNW) 816 3.7 -10.5°
Drops below altitude 10° 18:55:49 10° 214° (SW) 1,986 5.7 -11.3°
Sets 18:58:02 0° 209° (SSW) 2,887 6.4 -11.7°
